TIME,DELAY(SENSOR),PRES,T(CTD),SAL,OXYGEN,RAWTEMP,T(OPTODE),TCPHASE,FLUOR,BETA(BETA700),BETA(BETA412),BETA(BETA440),CDOM,C(CSC),ED(ED412.40),ED(ED444.00),ED(ED489.70),ED(ED554.30),LU(LU411.80),LU(LU443.40),LU(LU489.60),LU(LU554.10),COMP,TILTX,TILTX(TILTY),CHECK
1338413303,5807,497.8599853515625000,6.5858998298645020,34.1809997558593750,64.6182174682617200,600.5385742187500000,6.5668678283691410,50.8117218017578100,52,103,89,82,83,15313,2147751561,2147422555,2148001572,2147875035,2147631369,2147077202,2148253147,2147202688,1428,4,13,24698
1338413457,5810,486.8699951171875000,6.7774000167846680,34.1795005798339840,67.9101409912109400,594.6669921875000000,6.7564067840576170,50.3077507019043000,52,105,90,81,82,15312,2147751314,2147420827,2148005266,2147875766,2147630665,2147079140,2148246610,2147201590,1205,4,13,28554
1338413620,5807,475.8399963378906000,6.8404998779296875,34.1567001342773440,77.6928024291992200,592.6740112304688000,6.8206691741943360,49.0761909484863300,52,105,89,81,81,15312,2147749915,2147419666,2148002294,2147876544,2147631131,2147079652,2148246637,2147206372,3453,4,13,38719
1338413769,5807,463.6799926757812500,6.9928002357482910,34.1419982910156250,85.8083572387695300,587.8681030273438000,6.9754772186279300,48.0593185424804700,53,106,89,81,80,15314,2147748278,2147421211,2148001883,2147875136,2147631808,2147080201,2148248950,2147202642,3064,4,13,27488
1338413884,5802,453.0499877929687500,7.1828999519348145,34.1278991699218750,93.0696563720703100,582.0313720703125000,7.1632018089294430,47.1564903259277340,51,105,91,80,80,15312,2147747346,2147420580,2147998390,2147874660,2147629888,2147084644,2148241307,2147202441,3470,4,13,16752
1338414001,5811,442.4400024414062500,7.3611001968383790,34.1189002990722660,103.9680023193359400,576.4257812500000000,7.3432040214538570,45.9108390808105500,51,104,85,81,81,15314,2147748900,2147419264,2148003318,2147873728,2147630098,2147087771,2148241124,2147204141,2937,4,13,47388
1338414128,5808,431.0199890136719000,7.5286002159118650,34.1091003417968750,114.9786987304687500,571.1740112304688000,7.5115909576416020,44.7190284729003900,51,105,93,80,78,15312,2147745051,2147422646,2147997961,2147878061,2147626194,2147089389,2148238656,2147206235,2812,4,13,53028
1338414243,5808,420.7200012207031000,7.6717000007629395,34.1030998229980500,123.3669967651367200,566.5739135742188000,7.6588840484619140,43.8432693481445300,51,107,91,81,78,15312,2147745069,2147422491,2148003300,2147877193,2147630034,2147085686,2148238180,2147204781,2145,4,13,44285
1338414373,5808,409.2399902343750000,7.9054999351501465,34.1016006469726560,130.2595062255859400,559.3646850585938000,7.8893508911132810,43.0887985229492200,51,106,91,80,78,15311,2147747785,2147424009,2148001344,2147870774,2147626422,2147087040,2148240539,2147207744,2598,4,13,41093
1338414500,5809,398.5000000000000000,8.4169998168945310,34.1086997985839840,140.1688995361328000,542.7670898437500000,8.4182872772216800,41.9350891113281250,51,110,89,81,78,15305,2147745444,2147422829,2148002029,2147877193,2147624027,2147090880,2148239881,2147202825,2504,4,13,53668
1338414641,5809,387.5199890136719000,8.7551002502441400,34.1105003356933600,154.4250946044922000,532.6892089843750000,8.7383594512939450,40.5852813720703100,50,107,89,80,76,15311,2147744950,2147425051,2148005485,2147877824,2147626688,2147092608,2148233910,2147202130,1733,4,13,31673
1338414780,5806,376.7699890136719000,8.9182996749877930,34.1054992675781250,162.2967987060547000,527.5407714843750000,8.9015674591064450,39.8845596313476560,50,103,90,81,75,15307,2147742656,2147420379,2148002422,2147872475,2147623542,2147095734,2148235501,2147203008,1860,4,14,7956
1338414940,5808,364.9500122070312500,9.3206996917724610,34.1116981506347660,171.8681945800781200,514.8826293945312000,9.3019771575927730,38.9580688476562500,50,107,92,81,75,15308,2147744795,2147422875,2148005202,2147876653,2147619876,2147101385,2148231414,2147207195,833,4,13,51668
1338415067,5809,353.6400146484375000,9.8025999069213870,34.1265983581543000,185.1753997802734400,498.9996032714844000,9.8027400970458980,37.7604103088378900,50,106,93,81,74,15311,2147740022,2147423405,2148005714,2147874688,2147615360,2147102061,2148230244,2147208896,1176,4,14,63714
1338415182,5809,343.0400085449219000,10.3619003295898440,34.1486015319824200,198.2039031982422000,481.6907958984375000,10.3464698791503900,36.6271705627441400,50,106,88,81,72,15310,2147742564,2147426057,2148005952,2147877467,2147613714,2147107245,2148226166,2147209408,461,3,13,5591
1338415300,5808,332.2600097656250000,10.7966995239257810,34.1623001098632800,203.7057037353515600,467.3840942382812500,10.7944202423095700,36.0524215698242200,48,106,87,79,72,15309,2147736978,2147425408,2148010605,2147875465,2147612608,2147107702,2148223771,2147207862,718,4,14,16684
1338415427,5806,320.9599914550781000,11.5242996215820310,34.1973991394043000,209.3226013183593800,443.7911987304687500,11.5304203033447270,35.3340492248535160,48,105,90,81,72,15310,2147737289,2147427163,2148018541,2147875529,2147609600,2147115794,2148227858,2147210093,784,4,14,63672
1338415556,5809,309.9500122070312500,12.1536998748779300,34.2285995483398440,220.3150024414062500,423.7551879882812500,12.1530399322509770,34.3930397033691400,48,107,90,80,71,15306,2147731766,2147425243,2148025673,2147871213,2147604909,2147122038,2148225792,2147207634,2972,3,14,19473
1338415683,5806,299.2900085449219000,12.2253999710083000,34.2350997924804700,215.3672943115234400,421.4249877929687500,12.2253198623657230,34.6309700012207000,49,107,89,80,71,15307,2147730258,2147426514,2148028452,2147874285,2147601883,2147122560,2148228845,2147210322,2734,3,14,37872
1338415822,5808,288.1400146484375000,12.6546001434326170,34.2619018554687500,213.6015014648437500,407.8381958007812500,12.6462202072143550,34.5174598693847660,48,105,90,79,70,15309,2147724772,2147435794,2148047085,2147875154,2147601051,2147131794,2148234633,2147209499,704,4,14,13729
1338415952,5812,277.7099914550781000,13.0153999328613280,34.2869987487793000,214.8670043945312500,396.5588989257812500,12.9949998855590820,34.2703781127929700,49,110,93,81,68,15303,2147729124,2147439597,2148065389,2147874194,2147597385,2147128219,2148244022,2147213229,1027,4,15,203
1338416103,5810,266.4299926757812500,13.3924999237060550,34.3176002502441400,212.8399963378906200,383.7586059570312500,13.3901395797729500,34.1874809265136700,48,108,89,82,70,15300,2147726171,2147452187,2148094729,2147874304,2147600393,2147143058,2148256630,2147213805,1433,3,15,65113
1338416250,5808,254.7100067138672000,13.9864997863769530,34.3414993286132800,203.6587982177734400,364.6754150390625000,13.9780502319335940,34.4274597167968750,49,108,88,81,70,15296,2147727277,2147459337,2148120786,2147869878,2147596672,2147147346,2148264356,2147214555,2060,3,14,57242
1338416365,5810,244.6100006103515600,14.8369998931884770,34.4170989990234400,199.1699981689453000,335.3794860839844000,14.8781900405883790,34.2531089782714840,48,110,90,82,68,15287,2147728877,2147490331,2148218843,2147874569,2147595145,2147167378,2148309961,2147216466,1416,2,15,63229
1338416506,5810,233.5200042724609400,15.5762996673583980,34.4942016601562500,202.6078033447265600,313.4361877441406000,15.5508403778076170,33.7215614318847660,49,111,91,81,68,15288,2147728850,2147525696,2148306797,2147876470,2147588763,2147193051,2148350189,2147220937,2303,4,14,35888
1338416657,5810,222.4299926757812500,16.8379993438720700,34.6309013366699200,204.5789947509765600,271.9359130859375000,16.8203792572021500,33.0030517578125000,51,109,91,82,68,15292,2147733723,2147576457,2148412845,2147871890,2147584640,2147233590,2148395456,2147225947,233,3,14,7543
1338416829,5806,208.9400024414062500,17.3216991424560550,34.6864013671875000,205.8274993896484400,253.6739044189453000,17.3783302307128900,32.6704902648925800,52,109,88,81,68,15287,2147751488,2147680493,2148640932,2147873270,2147588672,2147301677,2148501632,2147236644,73,2,14,40922
1338416955,5806,197.6499938964843800,18.6665000915527340,34.8244018554687500,208.0592956542968800,210.9295959472656200,18.6837291717529300,31.9470195770263670,52,106,88,81,66,15285,2147782336,2147824886,2148936201,2147875501,2147597339,2147380653,2148648036,2147251510,129,3,15,11021
1338417010,5805,192.9299926757812500,19.0711002349853500,34.8768005371093750,209.2140960693359400,199.2942962646484400,19.0391407012939450,31.7225608825683600,56,110,90,80,67,15280,2147800283,2147913453,2149106011,2147878180,2147605696,2147433572,2148722587,2147257170,774,3,15,27429
1338417065,5805,188.5299987792968800,19.1445999145507800,34.8881988525390600,210.5720062255859400,195.9582977294922000,19.1410598754882800,31.6022205352783200,54,109,91,81,67,15282,2147827264,2148002806,2149276690,2147877796,2147614902,2147487506,2148810880,2147259190,997,3,14,31308
1338417140,5810,182.9400024414062500,19.3122005462646500,34.9104995727539060,211.3271942138672000,190.0204925537109400,19.3224906921386720,31.4800701141357420,57,108,89,82,67,15278,2147875035,2148150692,2149556242,2147876946,2147632292,2147581421,2148939474,2147268452,1741,3,15,62191
1338417195,5807,179.1900024414062500,19.5039997100830080,34.9365997314453100,211.9562072753906200,184.3179016113281200,19.4967708587646500,31.3683204650878900,58,107,90,82,65,15279,2147770240,2147670976,2148469869,2147874733,2147590445,2147317942,2148408621,2147234587,1905,3,15,11214
1338417262,5810,174.7299957275390600,19.6082000732421880,34.9495010375976560,212.4190979003906200,180.6923065185547000,19.6075801849365230,31.2943992614746100,60,106,89,81,66,15279,2147869357,2148026486,2149188754,2147880530,2147627648,2147516617,2148764736,2147259318,2198,2,15,40587
1338417317,5808,171.1000061035156200,19.7332000732421880,34.9669990539550800,212.8610992431640600,175.7624053955078000,19.7583007812500000,31.2038898468017580,59,110,88,81,65,15270,2147817993,2147804013,2148697764,2147873462,2147605531,2147385773,2148513965,2147242221,2323,3,15,10447
1338417384,5808,166.5800018310547000,20.0135002136230470,35.0041007995605500,213.8330993652343800,167.8363037109375000,20.0006809234619140,31.0451602935791000,63,110,92,82,64,15277,2148147757,2148857115,2150780662,2147882697,2147738340,2147974390,2149514157,2147316470,3043,3,15,65497
1338417462,5809,161.6999969482422000,20.2408008575439450,35.0358009338378900,215.6259002685547000,159.4275054931640600,20.2579402923584000,30.8374290466308600,64,112,91,81,64,15267,2148248265,2149066742,2151116059,2147887780,2147785252,2148097865,2149685120,2147324726,3275,2,15,22013
1338417529,5809,158.4499969482422000,20.4932994842529300,35.0588989257812500,217.1275024414062500,152.2906036376953000,20.4763908386230470,30.6635398864746100,69,114,89,81,65,15267,2148327670,2149242651,2151398061,2147888832,2147822281,2148204224,2149815424,2147331154,1969,2,16,30770
1338417620,5811,154.5399932861328000,20.5606002807617200,35.0666007995605500,218.4414978027343800,149.2010955810547000,20.5709800720214840,30.5542297363281250,70,111,90,81,63,15263,2148444214,2149448064,2151720054,2147896566,2147872192,2148331794,2149971876,2147345152,1829,2,16,44090
1338417711,5809,150.8399963378906200,20.8752002716064450,35.0976982116699200,219.2454071044922000,139.8538970947265600,20.8572902679443360,30.3893909454345700,77,115,92,81,65,15258,2148587830,2149712576,2152123840,2147898523,2147939062,2148485202,2150166692,2147361892,1280,2,16,24709
1338417829,5809,146.9799957275390600,21.1154994964599600,35.1203002929687500,220.9730987548828000,131.8986968994140600,21.1011199951171880,30.1964206695556640,85,121,89,83,63,15243,2148769499,2150047817,2152656493,2147903424,2148018221,2148668278,2150415122,2147379501,954,2,16,49367
1338417956,5806,142.7599945068359400,21.1704006195068360,35.1242980957031250,222.2528076171875000,129.7776947021484400,21.1661491394042970,30.1038703918457030,91,118,92,82,63,15238,2149040411,2150537289,2153401828,2147911744,2148141403,2148934756,2150751222,2147407908,135,2,16,64795
1338418090,5808,137.9600067138672000,21.2127990722656250,35.1226997375488300,223.2702026367187500,128.2276000976562500,21.2136993408203120,30.0324192047119140,92,119,93,82,63,15233,2149583332,2151493458,2154857024,2147927478,2148370349,2149420763,2151382601,2147455405,2643,2,16,31280
1338418169,5807,134.3899993896484400,21.2994995117187500,35.1240005493164060,223.9716949462890600,125.6155014038086000,21.2938098907470700,29.9633502960205080,103,124,92,83,62,15227,2150056896,2152258669,2155965915,2147943963,2148561124,2149772461,2151832384,2147494912,2537,2,16,49843
1338418260,5811,130.5599975585937500,21.3194007873535160,35.0937004089355500,226.3397979736328000,124.9310989379882800,21.3148097991943360,29.8373508453369140,115,123,92,83,63,15207,2150617280,2153063350,2156992109,2147961883,2148761545,2150081033,2152199972,2147528402,2702,2,16,45492
1338418351,5809,126.7099990844726600,21.4153995513916000,35.0511016845703100,229.7158050537109400,121.4067001342773400,21.4229507446289060,29.6269798278808600,118,122,95,84,63,15198,2151550912,2154439268,2158785051,2147988736,2149058404,2150591771,2152848713,2147587830,2288,2,16,7579
1338418457,5808,122.7099990844726600,21.7068996429443360,35.0750007629394500,233.1878967285156200,112.7276992797851600,21.6893997192382800,29.3490791320800780,129,122,92,82,63,15184,2152610678,2155952457,2160678189,2148025481,2149395437,2151128685,2153493357,2147650587,1511,2,16,49901
1338418572,5812,119.3399963378906200,22.1581001281738280,35.0960006713867200,234.7207031250000000,98.8510131835937500,22.1159000396728500,29.0992107391357420,131,123,91,84,64,15172,2153688877,2157538368,2162673974,2148063241,2149791926,2151765851,2154272091,2147720091,2077,2,16,2817
1338418806,5808,115.1699981689453100,22.3197002410888670,35.1066017150878900,237.7630004882812500,92.5588226318359400,22.3094902038574220,28.8779106140136720,113,122,93,83,62,15172,2155529325,2160043172,2165556114,2148124050,2150535076,2152817819,2155413979,2147838034,1235,2,16,61801
1338418945,5808,110.8899993896484400,22.4542007446289060,35.1115989685058600,239.3211975097656200,88.1759567260742200,22.4444293975830080,28.7509803771972660,113,125,94,84,62,15167,2157725248,2162837750,2168460553,2148201307,2151510180,2154107026,2156707126,2147962605,3418,2,16,12687
1338419060,5810,106.0800018310546900,22.5592002868652340,35.1172981262207000,240.5505981445312500,84.6078033447265600,22.5543308258056640,28.6502799987792970,108,122,92,85,60,15166,2161636836,2167940772,2174016877,2148351122,2153230573,2156441627,2159081974,2148196169,112,2,16,56970
1338419127,5807,102.6200027465820300,22.9365997314453120,35.1283988952636700,239.7615051269531200,74.0152664184570300,22.8808803558349600,28.5526199340820300,91,124,93,85,63,15166,2164643318,2171689380,2177819190,2148474916,2154690715,2158315026,2160863753,2148379483,3086,2,16,53947
1338419218,5809,99.0800018310546900,23.0338993072509770,35.1346015930175800,241.0780029296875000,69.3723831176757800,23.0241508483886720,28.4347991943359380,90,125,95,83,59,15180,2167418395,2174845339,2180709001,2148600539,2156426523,2160482980,2162792347,2148564726,1762,2,16,17114
1338419285,5809,96.7500000000000000,23.0552997589111330,35.1346015930175800,241.7792968750000000,68.5885467529296900,23.0483398437500000,28.3936405181884770,86,130,94,86,59,15169,2169860918,2177652443,2183432502,2148727030,2157844571,2162159643,2164204754,2148701467,1505,2,16,56276
1338419343,5804,94.8199996948242200,23.0690002441406250,35.1347007751464840,241.9866027832031200,68.0876617431640600,23.0638103485107420,28.3779201507568360,84,128,92,85,59,15175,2171324214,2179103972,2184445760,2148787309,2158790089,2163175360,2164915501,2148774491,1656,2,16,13193
1338419398,5814,93.0199966430664000,23.0869998931884770,35.1347007751464840,242.2279052734375000,67.4818267822265600,23.0825099945068360,28.3596000671386720,85,124,91,85,61,15171,2174414217,2182746331,2188012973,2148938066,2160508443,2165228370,2166678326,2148960978,1789,2,16,13829
1338419465,5807,90.8600006103515600,23.1077003479003900,35.1343002319335940,242.2400054931640600,66.7001724243164000,23.1066493988037100,28.3492698669433600,85,124,93,86,60,15171,2179380525,2188481133,2193578048,2149164717,2163267803,2168659693,2169793133,2149259730,1651,2,16,10497
1338419520,5809,89.0899963378906200,23.2201995849609380,35.1343002319335940,242.2265930175781200,63.3211402893066400,23.2110099792480470,28.3076591491699220,80,124,95,85,60,15172,2182714304,2192109019,2196919725,2149365540,2165211840,2170860653,2171547364,2149443510,1609,2,16,51983
1338419587,5809,87.0999984741211000,23.3066005706787100,35.1365013122558600,242.1354064941406200,60.5504913330078100,23.2966194152832030,28.2771797180175780,78,125,93,84,60,15171,2186366299,2195979821,2200366116,2149560566,2167458230,2173361682,2173459794,2149646939,1656,1,16,43146
1338419665,5811,84.6600036621093800,23.4071006774902340,35.1363983154296900,242.2557983398437500,57.4575614929199200,23.3922290802001950,28.2331905364990230,74,124,94,87,57,15172,2191669696,2201424301,2205028342,2149863469,2171151085,2177432082,2176612534,2149961846,2204,2,16,47864
1338419720,5810,82.3399963378906200,23.4874992370605470,35.1366004943847660,242.5773010253906200,54.6615295410156250,23.4786891937255860,28.1842308044433600,71,124,93,84,60,15168,2195897728,2205552100,2208524937,2150172077,2174442166,2180986980,2179327606,2150239734,2628,2,16,25204
1338419775,5809,79.9499969482421900,23.5765991210937500,35.1374015808105500,242.8627014160156200,51.8537101745605500,23.5655593872070300,28.1365699768066400,69,126,95,86,58,15173,2202487286,2212360685,2214800210,2150650669,2178813266,2185620946,2182725440,2150588955,2793,1,16,17848
1338419830,5806,77.4899978637695300,23.5976009368896500,35.1377983093261700,243.2052001953125000,50.9070091247558600,23.5948600769042970,28.1095008850097660,69,122,93,86,59,15166,2207763419,2217506624,2219356836,2151119954,2183124516,2190120786,2186018020,2150961792,2700,1,17,48307
1338419885,5806,74.8700027465820300,23.6606006622314450,35.1352005004882800,243.2826995849609400,48.9699592590332000,23.6548099517822270,28.0820598602294920,69,125,92,85,59,15163,2213056603,2222276726,2223194477,2151572105,2187597302,2194574153,2189090925,2151310793,2454,2,16,10492
1338419940,5808,72.0500030517578100,23.6875991821289060,35.1329994201660160,243.7758941650390600,47.9060287475585940,23.6877498626709000,28.0471401214599600,66,124,94,85,61,15165,2223021494,2232536329,2232871360,2152541083,2194563501,2201807588,2194543963,2151980489,2461,1,17,55345
1338419998,5808,69.0899963378906200,23.7224998474121100,35.1299018859863300,243.9954071044922000,46.2154388427734400,23.7401008605957030,28.0163803100585940,66,123,94,84,60,15166,2231311250,2240326784,2239710921,2153465124,2201794157,2209120832,2199923794,2152595090,2492,1,16,61209
1338420053,5808,66.5999984741211000,23.8029003143310550,35.1262016296386700,244.2138977050781200,44.3710212707519500,23.7972297668457030,27.9839496612548830,64,132,93,86,59,15166,2240621485,2249545289,2248370121,2154660352,2208658102,2215898057,2204760987,2153214180,2210,2,16,36510
1338420108,5809,64.5699996948242200,23.8775997161865230,35.1245994567871100,244.1813964843750000,42.6939010620117200,23.8491897583007800,27.9645690917968750,63,124,93,84,61,15165,2250508068,2259456667,2257928265,2155923227,2215569801,2222691712,2209510637,2153860068,1855,1,16,27537
1338420163,5809,62.9000015258789060,23.9316997528076170,35.1242980957031250,244.1488952636718800,40.1597709655761700,23.9277305603027340,27.9347190856933600,62,123,95,87,61,15168,2255737883,2263842752,2261886098,2156481033,2221823862,2228995099,2214358637,2154332425,956,2,16,38516
1338420230,5809,61.2500000000000000,23.9683990478515620,35.1226005554199200,244.6434020996093800,38.7584190368652340,23.9711799621582030,27.8956794738769530,60,127,97,86,58,15163,2259031844,2265815643,2262307172,2157169243,2225368054,2231439780,2215438134,2154543579,125,2,16,38634
1338420320,5810,58.8100013732910160,24.1935005187988280,35.1086997985839840,245.2700042724609400,32.0774688720703100,24.1784305572509770,27.7858009338378900,59,123,93,85,60,15158,2273187821,2280208310,2276349622,2159529161,2238789074,2243964269,2223855305,2155662281,3192,1,16,26557
1338420375,5809,57.0900001525878900,24.4890003204345700,35.0747985839843750,243.9857940673828000,20.9557209014892580,24.5239601135253900,27.7049293518066400,57,122,94,85,55,15159,2282476461,2289450139,2284722432,2160925476,2250564736,2255118500,2231485906,2156669312,2514,2,17,53479
1338420645,5807,55.0699996948242200,24.8213005065917970,35.0432014465332000,242.1396942138672000,11.3817701339721680,24.8219299316406250,27.6683902740478500,55,119,93,84,56,15160,2232547273,2233038537,2226827968,2155271241,2220994742,2220577865,2202398482,2153198829,2867,2,17,10023
1338420712,5808,53.1300010681152340,24.8763008117675780,35.0362014770507800,241.7487030029297000,9.5610647201538090,24.8786602020263670,27.6633396148681640,55,118,93,84,57,15166,2310090934,2318734720,2314694226,2166711433,2283784658,2285828818,2252737051,2159435410,93,2,16,17021
1338420791,5809,51.0299987792968750,24.9095001220703120,35.0325012207031250,241.1934051513672000,8.3332920074462890,24.9169197082519530,27.6727409362792970,54,117,91,84,61,15164,2293101229,2300090596,2295891456,2165520941,2273467776,2272173750,2240082834,2158099611,3088,2,17,19316
1338420858,5809,49.1599998474121100,24.9115009307861330,35.0323982238769500,241.0773925781250000,8.3020181655883790,24.9178905487060550,27.6774101257324220,55,118,93,84,55,15167,2314075483,2323500598,2319985974,2170577600,2298139081,2296023990,2257798125,2160668516,3020,2,17,17702
1338420936,5809,46.3199996948242200,24.9157009124755860,35.0317993164062500,240.9544067382812500,8.1849842071533200,24.9215393066406250,27.6814002990722660,55,117,90,84,60,15168,2328450267,2338051821,2334341485,2176381302,2323674413,2317414235,2271055168,2162748370,2749,2,16,56133
1338420991,5809,43.5600013732910160,24.9179000854492200,35.0325012207031250,241.1224975585937500,8.0424785614013670,24.9259796142578120,27.6723899841308600,55,116,94,83,57,15159,2342346715,2352537773,2348679488,2181686043,2350577590,2341114477,2286696932,2165507382,2561,1,17,47927
1338421046,5807,40.6399993896484400,24.9209003448486330,35.0321006774902340,241.0388946533203000,7.9682259559631350,24.9283008575439450,27.6751995086669920,54,117,93,85,58,15162,2364050477,2376099702,2373350061,2190270866,2379633618,2366658925,2303518363,2168356891,2588,1,17,30337
1338421101,5804,37.6199989318847660,24.9225997924804700,35.0313987731933600,241.1656036376953000,7.8813848495483400,24.9309997558593750,27.6685104370117200,53,120,91,86,55,15166,2363880731,2375257755,2373024676,2197107373,2396529673,2379979209,2311562148,2170507574,2647,2,17,9415
1338421156,5809,34.5699996948242200,24.9235992431640620,35.0308990478515600,241.2722930908203000,7.7902169227600100,24.9338493347167970,27.6626605987548830,53,118,89,86,58,15169,2388456146,2401308845,2399712731,2208297353,2425519707,2404588416,2327791853,2174476690,2840,1,17,25933
1338421211,5806,31.5400009155273440,24.9265003204345700,35.0297012329101560,241.1761016845703000,7.6307950019836430,24.9388103485107420,27.6649703979492200,52,116,91,85,53,15168,2387857581,2399945097,2399498651,2216860068,2428405778,2402632411,2322118601,2173861366,2801,1,16,5683
1338421269,5805,28.3700008392334000,24.9319992065429700,35.0308990478515600,241.3009033203125000,7.4341001510620120,24.9449405670166000,27.6569309234619140,53,117,93,84,60,15172,2406903533,2419498861,2419734866,2235103414,2464188928,2434154733,2345030921,2181434358,2724,0,16,21572
1338421324,5809,25.4699993133544920,24.9351005554199220,35.0312995910644500,241.2682952880859400,7.2970027923583980,24.9492206573486330,27.6567401885986330,53,116,91,83,56,15148,2442177106,2458694537,2462303360,2261641956,2509054034,2474957202,2373196470,2189107200,2611,2,16,12957
